Regional Weather Roundup
Issued by NWS New Orleans/Baton Rouge, LA

Home | Current Version | Previous Version | Text Only | Print | Product List | Glossary Off
Versions: 1 2 3 4 5 6 7 8 9 10 11 12 13 14 15 16 17 18 19 20 21 22 23 24 25 26 27 28 29 30 31 32 33 34 35 36 37 38 39 40 41 42 43 44 45 46 47 48 49 50

030
ASUS44 KLIX 162205
RWRLIX
NEW ORLEANS REGIONAL WEATHER ROUNDUP
NATIONAL WEATHER SERVICE NEW ORLEANS LA
500 PM CDT WED APR 16 2014

NOTE: "FAIR" INDICATES FEW OR NO CLOUDS BELOW 12,000 FEET WITH NO
      SIGNIFICANT WEATHER AND/OR OBSTRUCTIONS TO VISIBILITY.
      SKY/WX - SKY CONDITION AND SIGNIFICANT WEATHER.
      TMP - AIR TEMPERATURE.     DP    - DEWPOINT TEMPERATURE.
      RH  - RELATIVE HUMIDITY.   PRES  - PRESSURE.
      HI  - HEAT INDEX.          WCI   - WIND CHILL INDEX.

*  THESE STATIONS ARE NOT NWS OR FAA STATIONS AND ARE NOT UNDER
   NWS QUALITY CONTROL.

LAZ038-040-048-061>063-065>067-069-162300-
SOUTHEAST LOUISIANA

CITY           SKY/WX    TMP DP  RH WIND       PRES   REMARKS
N.O. AUDUBON   NOT AVBL
N.O. INTL ARPT MOSUNNY   63  39  41 NE12      30.13S
N.O. LAKEFRONT MOSUNNY   61  40  45 NE9       30.14F
N.O. DOWNTOWN*   N/A     61  37  41 NE8       30.14S
SLIDELL        MOSUNNY   61  41  47 S7        30.13F
BATON ROUGE    MOSUNNY   65  37  35 E5        30.11F
BOOTHVILLE     CLOUDY    58  45  62 NE9       30.15F
BELLE CHASSE   MOSUNNY   62  40  44 E7        30.14R
BOGALUSA*        N/A     67  31  25 SW6       30.14S
GALLIANO*      MOCLDY    62  47  56 E8        30.13F
NEW ROADS*       N/A     63  40  43 SE5       30.11F
GONZALES*        N/A     64  43  47 S5        30.11S
HAMMOND*       MOSUNNY   64  32  29 SW6       30.14F
HOUMA*         MOSUNNY   66  43  42 NE8       30.12F
PORT FOURCHON* CLOUDY    59  46  63 NE9       30.15S

$$

MSZ070-080>082-162300-
SOUTHERN MISSISSIPPI

CITY           SKY/WX    TMP DP  RH WIND       PRES   REMARKS
MCCOMB         SUNNY     64  32  30 SE7       30.11F
GULFPORT       SUNNY     59  41  51 S9        30.15S
BILOXI         SUNNY     58  42  55 S8        30.15S
PASCAGOULA     SUNNY     61  42  49 S8        30.15S
STENNIS ARPT*  SUNNY     61  37  41 SE10      30.15R

$$

COASTAL OBSERVATIONS
LAKE AND NEARSHORE STATIONS

STATION/POSITION TIME  TEMP    WIND        PRES    WAVE
                       AIR SEA DIR/SP/G            HT/PER
                 (UTC) (F)     (DEG/KT/KT) (MB)    (FT/S)
PASCAGOULA       2200   58     190/  7/ 10 1020.4
WAVELAND YACHT   2200   56 65  160/  8/ 10 1020.1
GRAND ISLE       2200   59 67   60/  5/ 10 1021.2
SOUTHWEST PASS   2200   64 59   40/ 10/ 12 1020.5
NEW CANAL        2200   58 63   60/ 10/ 13 1020.7
SHELL BEACH      2200   57 62   60/ 11/ 13 1020.5

OFFSHORE STATIONS

STATION/POSITION TIME  TEMP    WIND        PRES    WAVE
                       AIR SEA DIR/SP/G            HT/PER
                 (UTC) (F)     (DEG/KT/KT) (MB)    (FT/S)
64 S DAUPHIN ISL 2132   58 70   70/ 10/ 14 1020.6

$$




USA.gov is the U.S. government's official web portal to all federal, state and local government web resources and services.